Time,TemperatureF,DewpointF,PressureIn,WindDirection,WindDirectionDegrees,WindSpeedMPH,WindSpeedGustMPH,Humidity,HourlyPrecipIn,Conditions,Clouds,dailyrainin,SoftwareType,DateUTC
2013-08-09 00:05:00,77.4,-30.4,29.94,WSW,247,4.2,-999.0,1,-99.99,,,0.00,Acu-Link.com,2013-08-09 04:05:00,
2013-08-09 00:22:00,77.5,-30.3,29.93,WSW,247,3.2,-999.0,1,-99.99,,,0.00,Acu-Link.com,2013-08-09 04:22:00,
2013-08-09 00:38:00,77.5,-30.3,29.94,WSW,247,3.7,-999.0,1,-99.99,,,0.00,Acu-Link.com,2013-08-09 04:38:00,
2013-08-09 00:53:00,77.4,-30.4,29.93,WSW,247,2.2,-999.0,1,-99.99,,,0.00,Acu-Link.com,2013-08-09 04:53:00,
2013-08-09 01:08:00,77.4,-30.4,29.93,WSW,247,1.7,-999.0,1,-99.99,,,0.00,Acu-Link.com,2013-08-09 05:08:00,
2013-08-09 01:23:00,77.4,-30.4,29.92,WSW,247,0.0,-999.0,1,-99.99,,,0.00,Acu-Link.com,2013-08-09 05:23:00,
2013-08-09 01:39:00,77.4,-30.4,29.93,WSW,247,3.2,-999.0,1,-99.99,,,0.00,Acu-Link.com,2013-08-09 05:39:00,
2013-08-09 01:54:00,77.4,-30.4,29.92,WSW,247,1.7,-999.0,1,-99.99,,,0.00,Acu-Link.com,2013-08-09 05:54:00,
2013-08-09 02:09:00,77.7,-30.2,29.91,WSW,247,4.7,-999.0,1,-99.99,,,0.00,Acu-Link.com,2013-08-09 06:09:00,
2013-08-09 02:24:00,77.9,-30.1,29.91,West,270,1.7,-999.0,1,-99.99,,,0.00,Acu-Link.com,2013-08-09 06:24:00,
2013-08-09 02:39:00,77.9,-30.1,29.90,West,270,2.7,-999.0,1,-99.99,,,0.00,Acu-Link.com,2013-08-09 06:39:00,
2013-08-09 02:55:00,77.9,-30.1,29.90,West,270,2.7,-999.0,1,-99.99,,,0.00,Acu-Link.com,2013-08-09 06:55:00,
2013-08-09 03:10:00,77.9,-30.1,29.90,West,270,2.7,-999.0,1,-99.99,,,0.00,Acu-Link.com,2013-08-09 07:10:00,
2013-08-09 03:25:00,77.9,-30.1,29.91,West,270,2.2,-999.0,1,-99.99,,,0.00,Acu-Link.com,2013-08-09 07:25:00,
2013-08-09 03:41:00,77.9,-30.1,29.90,West,270,1.7,-999.0,1,-99.99,,,0.00,Acu-Link.com,2013-08-09 07:41:00,
2013-08-09 03:56:00,77.9,-30.1,29.90,West,270,1.1,-999.0,1,-99.99,,,0.00,Acu-Link.com,2013-08-09 07:56:00,
2013-08-09 04:21:00,77.9,-30.1,29.90,West,270,3.7,-999.0,1,-99.99,,,0.00,Acu-Link.com,2013-08-09 08:21:00,
2013-08-09 04:36:00,77.9,-30.1,29.90,West,270,3.2,-999.0,1,-99.99,,,0.00,Acu-Link.com,2013-08-09 08:36:00,
2013-08-09 04:51:00,78.1,-30.0,29.90,West,270,2.2,-999.0,1,-99.99,,,0.00,Acu-Link.com,2013-08-09 08:51:00,
2013-08-09 05:06:00,77.9,-30.1,29.90,West,270,2.7,-999.0,1,-99.99,,,0.00,Acu-Link.com,2013-08-09 09:06:00,
2013-08-09 05:21:00,77.9,-30.1,29.89,West,270,2.7,-999.0,1,-99.99,,,0.00,Acu-Link.com,2013-08-09 09:21:00,
2013-08-09 05:36:00,78.1,-30.0,29.89,West,270,1.7,-999.0,1,-99.99,,,0.00,Acu-Link.com,2013-08-09 09:36:00,
2013-08-09 05:52:00,77.9,-30.1,29.90,West,270,2.7,-999.0,1,-99.99,,,0.00,Acu-Link.com,2013-08-09 09:52:00,
2013-08-09 06:07:00,77.9,-30.1,29.89,West,270,0.0,-999.0,1,-99.99,,,0.00,Acu-Link.com,2013-08-09 10:07:00,
2013-08-09 06:22:00,78.1,-30.0,29.89,West,270,2.2,-999.0,1,-99.99,,,0.00,Acu-Link.com,2013-08-09 10:22:00,
2013-08-09 06:37:00,78.3,-29.9,29.89,West,270,2.7,-999.0,1,-99.99,,,0.00,Acu-Link.com,2013-08-09 10:37:00,
2013-08-09 06:53:00,78.4,-29.8,29.88,WSW,247,4.2,-999.0,1,-99.99,,,0.00,Acu-Link.com,2013-08-09 10:53:00,
2013-08-09 07:08:00,78.6,-29.7,29.88,WSW,247,4.2,-999.0,1,-99.99,,,0.00,Acu-Link.com,2013-08-09 11:08:00,
2013-08-09 07:23:00,79.2,-29.3,29.87,West,270,4.7,-999.0,1,-99.99,,,0.00,Acu-Link.com,2013-08-09 11:23:00,
2013-08-09 07:39:00,79.3,-29.3,29.88,WSW,247,5.3,-999.0,1,-99.99,,,0.00,Acu-Link.com,2013-08-09 11:39:00,
2013-08-09 07:54:00,79.7,-29.0,29.87,SW,225,5.8,-999.0,1,-99.99,,,0.00,Acu-Link.com,2013-08-09 11:54:00,
2013-08-09 08:09:00,80.6,-28.5,29.87,SW,225,6.3,-999.0,1,-99.99,,,0.00,Acu-Link.com,2013-08-09 12:09:00,
2013-08-09 08:24:00,80.6,-28.5,29.88,SSE,157,7.8,-999.0,1,-99.99,,,0.00,Acu-Link.com,2013-08-09 12:24:00,
2013-08-09 08:40:00,82.0,-27.7,29.88,SSW,202,5.8,-999.0,1,-99.99,,,0.00,Acu-Link.com,2013-08-09 12:40:00,
2013-08-09 08:55:00,82.4,-27.4,29.88,ESE,112,5.3,-999.0,1,-99.99,,,0.00,Acu-Link.com,2013-08-09 12:55:00,
2013-08-09 09:10:00,82.9,-27.1,29.86,WSW,247,4.7,-999.0,1,-99.99,,,0.00,Acu-Link.com,2013-08-09 13:10:00,
2013-08-09 09:25:00,83.8,-26.6,29.86,South,180,4.7,-999.0,1,-99.99,,,0.00,Acu-Link.com,2013-08-09 13:25:00,
2013-08-09 09:40:00,84.9,-25.9,29.86,WSW,247,6.3,-999.0,1,-99.99,,,0.00,Acu-Link.com,2013-08-09 13:40:00,
2013-08-09 09:55:00,84.4,-26.2,29.86,West,270,7.8,-999.0,1,-99.99,,,0.00,Acu-Link.com,2013-08-09 13:55:00,
2013-08-09 10:11:00,84.6,-26.1,29.86,WSW,247,4.7,-999.0,1,-99.99,,,0.00,Acu-Link.com,2013-08-09 14:11:00,
2013-08-09 10:26:00,86.4,-25.0,29.86,SW,225,5.8,-999.0,1,-99.99,,,0.00,Acu-Link.com,2013-08-09 14:26:00,
2013-08-09 10:41:00,86.7,-24.9,29.86,NE,45,4.7,-999.0,1,-99.99,,,0.00,Acu-Link.com,2013-08-09 14:41:00,
2013-08-09 10:56:00,87.6,86.6,29.86,South,180,4.7,-999.0,97,-99.99,,,0.00,Acu-Link.com,2013-08-09 14:56:00,
2013-08-09 11:11:00,86.9,7.9,29.86,SSW,202,6.8,-999.0,5,-99.99,,,0.00,Acu-Link.com,2013-08-09 15:11:00,
2013-08-09 11:26:00,86.9,54.3,29.86,SW,225,6.8,-999.0,33,-99.99,,,0.01,Acu-Link.com,2013-08-09 15:26:00,
2013-08-09 11:42:00,88.2,-24.0,29.86,SSW,202,9.9,-999.0,1,-99.99,,,0.01,Acu-Link.com,2013-08-09 15:42:00,
2013-08-09 11:57:00,88.7,-23.7,29.86,WSW,247,9.4,-999.0,1,-99.99,,,0.01,Acu-Link.com,2013-08-09 15:57:00,
2013-08-09 12:12:00,87.8,-24.2,29.86,SSW,202,7.3,-999.0,1,-99.99,,,0.01,Acu-Link.com,2013-08-09 16:12:00,
2013-08-09 12:27:00,88.2,-24.0,29.86,SW,225,7.8,-999.0,1,-99.99,,,0.01,Acu-Link.com,2013-08-09 16:27:00,
2013-08-09 12:42:00,87.3,-24.5,29.85,WNW,292,12.5,-999.0,1,-99.99,,,0.01,Acu-Link.com,2013-08-09 16:42:00,
2013-08-09 12:57:00,87.4,61.5,29.84,WSW,247,5.8,-999.0,42,-99.99,,,0.01,Acu-Link.com,2013-08-09 16:57:00,
2013-08-09 13:13:00,87.3,86.7,29.84,East,90,7.3,-999.0,98,-99.99,,,0.01,Acu-Link.com,2013-08-09 17:13:00,
2013-08-09 13:28:00,88.7,36.7,29.84,SW,225,6.3,-999.0,16,-99.99,,,0.01,Acu-Link.com,2013-08-09 17:28:00,
2013-08-09 13:43:00,89.8,-1.2,29.84,WSW,247,6.3,-999.0,3,-99.99,,,0.01,Acu-Link.com,2013-08-09 17:43:00,
2013-08-09 13:58:00,89.4,-23.3,29.83,South,180,8.9,-999.0,1,-99.99,,,0.01,Acu-Link.com,2013-08-09 17:58:00,
2013-08-09 14:13:00,89.2,-23.4,29.82,SW,225,4.7,-999.0,1,-99.99,,,0.01,Acu-Link.com,2013-08-09 18:13:00,
2013-08-09 14:28:00,89.2,-23.4,29.82,West,270,6.8,-999.0,1,-99.99,,,0.01,Acu-Link.com,2013-08-09 18:28:00,
2013-08-09 14:44:00,90.3,-22.7,29.80,West,270,6.3,-999.0,1,-99.99,,,0.01,Acu-Link.com,2013-08-09 18:44:00,
2013-08-09 14:59:00,90.3,-22.7,29.79,SSW,202,8.9,-999.0,1,-99.99,,,0.01,Acu-Link.com,2013-08-09 18:59:00,
2013-08-09 15:14:00,90.0,-22.9,29.80,SSW,202,6.3,-999.0,1,-99.99,,,0.01,Acu-Link.com,2013-08-09 19:14:00,
2013-08-09 15:29:00,90.0,-22.9,29.80,South,180,4.2,-999.0,1,-99.99,,,0.01,Acu-Link.com,2013-08-09 19:29:00,
2013-08-09 15:44:00,90.5,-22.6,29.79,SSW,202,8.3,-999.0,1,-99.99,,,0.01,Acu-Link.com,2013-08-09 19:44:00,
2013-08-09 15:59:00,88.3,16.5,29.78,SW,225,7.3,-999.0,7,-99.99,,,0.01,Acu-Link.com,2013-08-09 19:59:00,
2013-08-09 16:15:00,90.5,-22.6,29.79,SW,225,7.3,-999.0,1,-99.99,,,0.01,Acu-Link.com,2013-08-09 20:15:00,
2013-08-09 16:30:00,90.3,-22.7,29.79,SSW,202,6.3,-999.0,1,-99.99,,,0.01,Acu-Link.com,2013-08-09 20:30:00,
2013-08-09 16:45:00,89.8,-23.0,29.78,SW,225,4.2,-999.0,1,-99.99,,,0.01,Acu-Link.com,2013-08-09 20:45:00,
2013-08-09 17:01:00,89.4,-23.3,29.78,SSW,202,6.3,-999.0,1,-99.99,,,0.01,Acu-Link.com,2013-08-09 21:01:00,
2013-08-09 17:16:00,89.8,-23.0,29.77,SW,225,6.3,-999.0,1,-99.99,,,0.01,Acu-Link.com,2013-08-09 21:16:00,
2013-08-09 17:32:00,89.1,82.9,29.77,SSE,157,8.3,-999.0,82,-99.99,,,0.01,Acu-Link.com,2013-08-09 21:32:00,
2013-08-09 17:47:00,88.5,87.9,29.77,SW,225,6.3,-999.0,98,-99.99,,,0.01,Acu-Link.com,2013-08-09 21:47:00,
2013-08-09 18:02:00,87.8,-24.2,29.77,SSW,202,7.8,-999.0,1,-99.99,,,0.01,Acu-Link.com,2013-08-09 22:02:00,
2013-08-09 18:17:00,87.3,-24.5,29.77,South,180,4.2,-999.0,1,-99.99,,,0.01,Acu-Link.com,2013-08-09 22:17:00,
2013-08-09 18:33:00,84.4,-26.2,29.75,SE,135,10.4,-999.0,1,-99.99,,,0.01,Acu-Link.com,2013-08-09 22:33:00,
2013-08-09 18:48:00,86.0,-25.3,29.77,WSW,247,4.7,-999.0,1,-99.99,,,0.01,Acu-Link.com,2013-08-09 22:48:00,
2013-08-09 19:03:00,85.5,-25.6,29.75,SW,225,3.2,-999.0,1,-99.99,,,0.01,Acu-Link.com,2013-08-09 23:03:00,
2013-08-09 19:18:00,85.3,-25.7,29.77,SW,225,4.7,-999.0,1,-99.99,,,0.01,Acu-Link.com,2013-08-09 23:18:00,
2013-08-09 19:34:00,82.4,-27.4,29.79,North,0,5.3,-999.0,1,-99.99,,,0.01,Acu-Link.com,2013-08-09 23:34:00,
2013-08-09 19:49:00,79.3,-29.3,29.81,West,270,5.8,-999.0,1,-99.99,,,0.02,Acu-Link.com,2013-08-09 23:49:00,
2013-08-09 20:04:00,76.3,-31.0,29.82,WNW,292,10.9,-999.0,1,-99.99,,,0.13,Acu-Link.com,2013-08-10 00:04:00,
2013-08-09 20:19:00,77.7,-30.2,29.81,West,270,3.2,-999.0,1,-99.99,,,0.58,Acu-Link.com,2013-08-10 00:19:00,
2013-08-09 20:34:00,77.4,-30.4,29.84,SW,225,9.9,-999.0,1,-99.99,,,0.71,Acu-Link.com,2013-08-10 00:34:00,
2013-08-09 20:50:00,75.9,-31.3,29.83,WSW,247,4.2,-999.0,1,-99.99,,,0.79,Acu-Link.com,2013-08-10 00:50:00,
2013-08-09 21:05:00,75.4,-31.6,29.85,SSE,157,4.2,-999.0,1,-99.99,,,0.80,Acu-Link.com,2013-08-10 01:05:00,
2013-08-09 21:20:00,75.6,-31.5,29.84,SSE,157,6.3,-999.0,1,-99.99,,,0.80,Acu-Link.com,2013-08-10 01:20:00,
2013-08-09 21:35:00,75.9,-31.3,29.85,South,180,6.3,-999.0,1,-99.99,,,0.80,Acu-Link.com,2013-08-10 01:35:00,
2013-08-09 21:50:00,76.3,-31.0,29.85,SSE,157,4.7,-999.0,1,-99.99,,,0.80,Acu-Link.com,2013-08-10 01:50:00,
2013-08-09 22:06:00,76.5,-30.9,29.84,SSE,157,4.2,-999.0,1,-99.99,,,0.81,Acu-Link.com,2013-08-10 02:06:00,
2013-08-09 22:21:00,76.5,-30.9,29.85,SSW,202,4.7,-999.0,1,-99.99,,,0.82,Acu-Link.com,2013-08-10 02:21:00,
2013-08-09 22:37:00,76.5,-30.9,29.85,North,0,6.3,-999.0,1,-99.99,,,0.83,Acu-Link.com,2013-08-10 02:37:00,
2013-08-09 22:52:00,76.5,-30.9,29.85,SSW,202,5.8,-999.0,1,-99.99,,,0.83,Acu-Link.com,2013-08-10 02:52:00,
2013-08-09 23:07:00,76.5,-30.9,29.86,West,270,4.2,-999.0,1,-99.99,,,0.86,Acu-Link.com,2013-08-10 03:07:00,
2013-08-09 23:23:00,76.5,-30.9,29.85,SSW,202,8.3,-999.0,1,-99.99,,,0.87,Acu-Link.com,2013-08-10 03:23:00,
2013-08-09 23:38:00,76.5,-30.9,29.85,SSW,202,3.7,-999.0,1,-99.99,,,0.87,Acu-Link.com,2013-08-10 03:38:00,
2013-08-09 23:53:00,76.5,-30.9,29.85,North,0,6.3,-999.0,1,-99.99,,,0.87,Acu-Link.com,2013-08-10 03:53:00,